Location: Friedrichshafen
(47.6598°N, 9.4819°E)
Time: 09:55:50
(UTC+02:00)

ISS - Pass Details

Date: 10 February 2018
Orbit: 402 x 406 km, 51.6° (Epoch: 18 June)

Event Time Altitude Azimuth Distance (km) Brightness Sun altitude
Rises 20:07:25 0° 282° (WNW) 2,320 1.4 -25.7°
Reaches altitude 10° 20:10:30 10° 250° (WSW) 1,456 -0.2 -26.2°
Maximum altitude 20:11:51 12° 226° (SW) 1,337 -0.8 -26.4°
Enters shadow 20:11:59 12° 223° (SW) 1,338 -0.8 -26.5°
